Retour au catalogue

COSMOS 2461

GLONASS

ActifNavigationMEO
NORAD 36401·PAYLOAD·🇷🇺 Russia

Lancé Mar 1, 2010 depuis Baikonur Cosmodrome

Loading…

Prochains Passages (prochaines 24 heures)

TLE

FraisSource: Space-Track

Époque: Sep 12, 2026, 07:27 UTC

1 36401U 10007B   26255.31077162 -.00000044  00000-0  00000-0 0  9998
2 36401  65.3803 311.5907 0019775 356.6733 318.6199  2.13106797128676

Suivez COSMOS 2461 en temps réel avec AllMySat

Download on the App Store